{"data":{"norad_id":56905,"epoch":"2026-05-25T00:04:05.642976Z","epoch_age_seconds":68079,"freshness":"FRESH","line1":"1 56905U 23083AF  26145.00284309 -.00000214  00000+0  17606-5 0  9997","line2":"2 56905  43.0051 359.3370 0001835 255.2870 104.7779 15.27587912163479","mean_motion":15.27587912,"eccentricity":0.0001835,"inclination_deg":43.0051,"raan_deg":359.337,"arg_perigee_deg":255.287,"mean_anomaly_deg":104.7779,"bstar":1.7606e-6,"rev_number":16347,"period_min":94.266260467764,"perigee_km":481.76638146631,"apogee_km":484.28442806886,"semimajor_km":6861.1624047676,"source":"CELESTRAK","updated_at":"2026-05-25T13:38:18.202058Z"}}